This is the latest recevied weather packets stored in our database for station/object EA7URS-13. If no packets are shown the sender has not sent any weather packets the latest 10 day(s).
| Time | Temp. | Humidity | Pressure | Rain* | Wind** | Luminosity | Snow |
|---|---|---|---|---|---|---|---|
| 1788522967 | 31.67° C | 52% | 1012.7 hPa | 0 mm | - | 427 W/m² | - |
| 1788522666 | 31.67° C | 52% | 1012.7 hPa | 0 mm | - | 427 W/m² | - |
| 1788522365 | 30° C | 56% | 1012.9 hPa | 0 mm | - | 266 W/m² | - |
| 1788522064 | 30° C | 56% | 1012.9 hPa | 0 mm | - | 266 W/m² | - |
| 1788521763 | 30.56° C | 57% | 1013.2 hPa | 0 mm | - | 218 W/m² | - |
| 1788521462 | 30.56° C | 57% | 1013.2 hPa | 0 mm | - | 218 W/m² | - |
| 1788521161 | 30° C | 59% | 1013.3 hPa | 0 mm | - | 217 W/m² | - |
| 1788520860 | 30° C | 59% | 1013.3 hPa | 0 mm | - | 217 W/m² | - |
| 1788520559 | 30° C | 60% | 1013.4 hPa | 0 mm | - | 182 W/m² | - |
| 1788520258 | 30° C | 60% | 1013.4 hPa | 0 mm | - | 182 W/m² | - |
| 1788519956 | 30° C | 59% | 1013.5 hPa | 0 mm | - | 207 W/m² | - |
| 1788519655 | 30° C | 59% | 1013.5 hPa | 0 mm | - | 207 W/m² | - |
| 1788519354 | 30.56° C | 59% | 1013.5 hPa | 0 mm | - | 221 W/m² | - |
| 1788519053 | 30.56° C | 59% | 1013.5 hPa | 0 mm | - | 221 W/m² | - |
| 1788518752 | 30° C | 58% | 1013.5 hPa | 0 mm | - | 223 W/m² | - |
| 1788518451 | 30° C | 58% | 1013.5 hPa | 0 mm | - | 223 W/m² | - |
| 1788518150 | 30.56° C | 60% | 1013.9 hPa | 0 mm | - | 226 W/m² | - |
| 1788517847 | 30.56° C | 60% | 1013.9 hPa | 0 mm | - | 226 W/m² | - |
| 1788517546 | 30.56° C | 59% | 1013.7 hPa | 0 mm | - | 261 W/m² | - |
| 1788517245 | 30.56° C | 59% | 1013.7 hPa | 0 mm | - | 261 W/m² | - |
| 1788516943 | 30° C | 62% | 1014 hPa | 0 mm | - | 492 W/m² | - |
| 1788516642 | 30° C | 62% | 1014 hPa | 0 mm | - | 492 W/m² | - |
| 1788516341 | 29.44° C | 64% | 1014 hPa | 0 mm | - | 408 W/m² | - |
| 1788516039 | 29.44° C | 64% | 1014 hPa | 0 mm | - | 408 W/m² | - |
| 1788515738 | 28.33° C | 68% | 1014.1 hPa | 0 mm | - | 522 W/m² | - |
* Rain latest hour (hover to see other rain measurements)
** Current wind speed in m/s (hover to see current wind gust speed)